Location: Nelson
(41.2830°S, 173.2830°E)
Time: 06:30:47
(UTC+12:00)

Daily predictions for brighter satellites

Satellite Brightness Start Highest point End
(mag) Time Altitude Azimuth Time Altitude Azimuth Time Altitude Azimuth
Cosmos 2082 Rocket 2.6 18:03:31 10° SSW 18:09:17 76° WNW 18:15:01 10° NNE
Okean O Rocket 2.2 18:05:13 10° SSE 18:09:19 35° E 18:13:19 10° NNE
PSLV R/B 4.0 18:07:05 10° S 18:11:09 83° WSW 18:15:13 10° NNW
CZ-4B R/B 3.6 18:06:22 10° SSE 18:11:34 43° E 18:16:37 10° N
CENTAUR R/B 3.0 18:09:03 10° SW 18:14:32 53° WNW 18:19:33 10° NNE
Cosmos 1452 Rocket 4.2 18:10:11 10° NNE 18:14:55 34° E 18:19:41 10° SE
Cosmos 1862 4.4 18:14:23 10° SSE 18:17:47 25° ESE 18:21:08 10° NE
MOS 1 Rocket 4.0 18:15:15 10° NE 18:19:17 29° ESE 18:23:11 10° S
PAYLOAD B 4.3 18:16:21 10° SSE 18:22:03 75° ENE 18:27:39 10° N
Cosmos 1633 2.7 18:20:41 10° S 18:24:22 83° W 18:27:58 10° N
Envisat 3.1 18:24:32 10° SSE 18:29:40 61° E 18:34:43 10° N
Cosmos 1441 Rocket 3.8 18:26:13 10° S 18:30:00 38° ESE 18:33:42 10° NE
Cosmos 1842 Rocket 3.9 18:26:27 10° NNW 18:30:57 74° W 18:35:32 10° S
deb Kosmos-1763 4.5 18:28:33 10° SSW 18:32:10 66° WNW 18:35:45 10° N
BREEZE-M DEB (TANK) 3.5 18:31:37 10° W 18:33:33 27° NW 18:36:23 10° NNE
AQUARIUS 4.4 18:31:43 10° SSE 18:36:12 51° E 18:40:36 10° N
Cosmos 1869 3.8 18:32:38 10° NNW 18:36:32 63° W 18:40:26 10° S
BREEZE M DEB (TANK) 1.9 18:35:08 10° WSW 18:36:34 31° S 18:38:00 16° ESE
Lacrosse 5 rocket 3.3 18:33:59 10° W 18:36:45 20° SSW 18:39:32 10° SSE
NOAA 6 4.3 18:32:40 10° S 18:37:56 76° WSW 18:43:07 10° NNW
Cosmos 676 Rocket 4.0 18:32:42 10° SSW 18:38:01 82° ESE 18:43:18 10° NNE
Cosmos 1420 Rocket 4.0 18:36:10 10° NNW 18:41:26 89° WSW 18:46:44 10° SSE
Cosmos 332 Rocket 3.8 18:36:45 10° N 18:41:40 74° ENE 18:46:38 10° SSE
Cosmos 1606 4.1 18:39:16 10° NE 18:41:54 18° E 18:43:19 15° ESE
Lacrosse 4 Rocket 2.6 18:38:55 10° S 18:42:43 26° SE 18:45:24 15° E
Cosmos 2366 rocket 4.1 18:39:08 10° S 18:45:36 88° W 18:51:58 10° N
Cosmos 1151 Rocket 4.5 18:43:35 10° NE 18:46:28 17° E 18:46:29 17° E
Sich 1 3.7 18:43:30 10° S 18:47:34 34° ESE 18:51:35 10° NE
CZ-2C R/B 3.1 18:43:08 10° NE 18:48:14 40° ESE 18:53:28 10° S
Aureole 1 Rocket 3.3 18:47:41 10° SSW 18:51:19 64° WNW 18:55:53 10° N
Cosmos 371 Rocket 3.9 18:48:48 10° NNW 18:53:36 60° WSW 18:58:29 10° SSE
Milstar 3 Cent rocket 4.0 18:49:18 10° WNW 18:54:23 23° N 18:58:14 10° NE
Cosmos 1743 Rocket 4.1 18:51:37 10° SSW 18:56:01 63° W 19:00:22 10° N
Cosmos 2369 Rocket 2.2 18:52:10 10° N 18:57:47 62° ENE 19:03:29 10° SSE
IRS-1C Rocket 4.5 18:54:43 10° SSE 18:59:47 42° E 19:04:47 10° N
Cosmos 1943 Rocket 2.3 18:58:51 10° NNW 19:04:22 79° WSW 19:09:58 10° SSE
Cosmos 1110 Rocket 4.3 19:05:26 10° N 19:10:22 43° ENE 19:14:23 15° SE
FengYun 1-2 T 4.2 19:05:50 10° SSE 19:11:29 66° ENE 19:17:00 10° N
CREW DRAGON DEMO-1 DEB 3.7 19:09:25 10° WNW 19:12:25 46° SSW 19:13:30 31° SSE
SL-27 R/B 2.9 19:10:03 10° S 19:13:18 38° ESE 19:13:18 38° ESE
Cosmos 1741 Rocket 4.0 19:08:25 10° SSW 19:13:40 63° ESE 19:18:51 10° NNE
YAOGAN 6 4.1 19:11:16 10° S 19:14:49 40° WSW 19:18:19 10° NW
Cosmos 2263 4.2 19:09:37 10° N 19:15:13 61° ENE 19:20:39 11° SSE
RESURS DK-1 4.2 19:18:28 10° WNW 19:22:12 31° WSW 19:25:59 10° S
Cosmos 1666 Rocket 3.5 19:22:09 10° S 19:26:35 60° E 19:30:11 15° NNE
IRIDIUM 106 4.5 19:21:43 10° S 19:26:53 49° E 19:31:57 10° NNE
CZ-4C R/B 3.0 19:18:54 10° NNW 19:27:12 88° WSW 19:33:45 13° SE
H-2A R/B 4.1 19:24:44 10° WNW 19:30:16 50° NNE 19:41:40 25° ENE
DELTA 2 R/B (1) 3.6 19:25:11 10° WNW 19:30:46 74° N 19:32:42 42° E
ATLAS 3B R/B 3.7 19:27:38 10° SW 19:34:28 48° WNW 19:40:59 10° N
ATLAS 2AS CENTAUR R/B 4.4 19:31:42 10° W 19:36:22 22° SW 19:41:08 10° SSE
Cosmos 1939 Rocket 2.6 19:35:32 52° SSE 19:36:23 74° E 19:40:17 10° N
COSMOS 2455 4.2 19:30:57 10° WNW 19:36:31 38° SW 19:42:08 10° SSE
Okean-O 2.5 19:39:16 46° SE 19:40:27 67° ENE 19:44:54 10° N
Okean O Rocket 4.1 19:42:04 10° SSW 19:45:25 21° WSW 19:48:44 10° WNW
Cosmos 1933 4.2 19:44:53 10° N 19:47:31 39° N 19:47:31 39° N
Helios 1A Rocket 3.5 19:46:48 10° S 19:50:55 56° WSW 19:54:55 10° NNW
Cosmos 1633 Rocket 3.0 19:49:16 10° S 19:53:47 83° W 19:54:33 60° N
CZ-2C R/B 3.6 19:53:39 59° N 19:54:29 84° WNW 19:59:04 10° SSW
Cosmos 1331 Rocket 3.9 19:49:36 10° NNW 19:54:47 83° WSW 19:57:18 32° SSE
Cosmos 1833 4.0 19:51:48 10° SSW 19:57:34 74° ESE 19:58:10 67° ENE
Cosmos 1934 Rocket 3.9 19:52:44 10° S 19:59:03 86° E 20:05:24 10° N
Cosmos 1328 Rocket 3.9 19:58:46 10° NNW 20:02:28 59° NW 20:02:28 59° NW
Meteor 1-25 Rocket 4.0 19:58:34 10° S 20:04:18 81° E 20:04:45 74° NE
Cosmos 1339 Rocket 4.3 20:02:47 10° N 20:08:54 76° E 20:15:03 10° S
Lacrosse 4 Rocket 2.9 20:17:20 10° SW 20:21:29 35° WNW 20:21:48 35° WNW
Cosmos 1656 Rocket 4.4 20:17:06 10° NW 20:22:40 53° WSW 20:25:05 32° S
Cosmos 1151 Rocket 4.3 20:19:29 10° NNW 20:23:33 40° W 20:23:33 40° W
BREEZE-M DEB (TANK) 4.5 20:24:45 10° NW 20:39:26 51° N 20:39:26 51° N
Cosmos 2369 Rocket 4.4 20:37:53 10° WNW 20:42:17 22° SW 20:46:41 10° S
CZ-4C R/B 4.5 21:10:21 10° W 21:16:38 26° SW 21:18:58 22° S
